Time,TemperatureF,DewpointF,PressureIn,WindDirection,WindDirectionDegrees,WindSpeedMPH,WindSpeedGustMPH,Humidity,HourlyPrecipIn,Conditions,Clouds,dailyrainin,SoftwareType,DateUTC
2013-07-15 00:02:00,73.5,72.0,30.07,East,91,0.0,1.0,95,0.00,,,0.00,weatherlink.com 1.10,2013-07-15 05:02:00,
2013-07-15 00:17:00,73.4,72.0,30.08,ENE,63,0.0,0.0,95,0.00,,,0.00,weatherlink.com 1.10,2013-07-15 05:17:00,
2013-07-15 00:32:00,73.3,72.0,30.08,SW,235,0.0,1.0,95,0.00,,,0.00,weatherlink.com 1.10,2013-07-15 05:32:00,
2013-07-15 00:47:00,73.0,72.0,30.08,SW,236,0.0,0.0,96,0.00,,,0.00,weatherlink.com 1.10,2013-07-15 05:47:00,
2013-07-15 01:02:00,72.9,72.0,30.08,West,264,0.0,1.0,96,0.00,,,0.00,weatherlink.com 1.10,2013-07-15 06:02:00,
2013-07-15 01:17:00,73.0,72.0,30.08,East,89,0.0,1.0,96,0.00,,,0.00,weatherlink.com 1.10,2013-07-15 06:17:00,
2013-07-15 01:32:00,73.0,72.0,30.07,ENE,78,0.0,1.0,95,0.00,,,0.00,weatherlink.com 1.10,2013-07-15 06:32:00,
2013-07-15 01:47:00,73.0,72.0,30.07,East,81,0.0,0.0,95,0.00,,,0.00,weatherlink.com 1.10,2013-07-15 06:47:00,
2013-07-15 02:02:00,72.9,71.0,30.07,East,81,0.0,1.0,95,0.00,,,0.00,weatherlink.com 1.10,2013-07-15 07:02:00,
2013-07-15 02:17:00,72.8,71.0,30.07,East,79,0.0,0.0,95,0.00,,,0.00,weatherlink.com 1.10,2013-07-15 07:17:00,
2013-07-15 02:32:00,72.8,71.0,30.07,East,79,0.0,1.0,95,0.00,,,0.00,weatherlink.com 1.10,2013-07-15 07:32:00,
2013-07-15 02:47:00,72.9,71.0,30.07,NNW,342,0.0,1.0,95,0.00,,,0.00,weatherlink.com 1.10,2013-07-15 07:47:00,
2013-07-15 03:02:00,72.7,71.0,30.07,NNW,342,0.0,1.0,95,0.00,,,0.00,weatherlink.com 1.10,2013-07-15 08:02:00,
2013-07-15 03:17:00,72.4,71.0,30.07,NNW,342,0.0,0.0,95,0.00,,,0.00,weatherlink.com 1.10,2013-07-15 08:17:00,
2013-07-15 03:32:00,72.2,71.0,30.07,NNW,342,0.0,0.0,95,0.00,,,0.00,weatherlink.com 1.10,2013-07-15 08:32:00,
2013-07-15 03:47:00,71.9,71.0,30.07,NNW,342,0.0,0.0,96,0.00,,,0.00,weatherlink.com 1.10,2013-07-15 08:47:00,
2013-07-15 04:02:00,71.7,71.0,30.08,NNW,342,0.0,0.0,96,0.00,,,0.00,weatherlink.com 1.10,2013-07-15 09:02:00,
2013-07-15 04:17:00,71.8,71.0,30.08,NNW,342,0.0,0.0,97,0.00,,,0.00,weatherlink.com 1.10,2013-07-15 09:17:00,
2013-07-15 04:32:00,72.0,71.0,30.09,ENE,68,0.0,1.0,97,0.00,,,0.00,weatherlink.com 1.10,2013-07-15 09:32:00,
2013-07-15 04:47:00,72.1,71.0,30.09,ENE,68,0.0,0.0,96,0.00,,,0.00,weatherlink.com 1.10,2013-07-15 09:47:00,
2013-07-15 05:02:00,72.0,71.0,30.10,ENE,68,0.0,0.0,97,0.00,,,0.00,weatherlink.com 1.10,2013-07-15 10:02:00,
2013-07-15 05:17:00,72.1,71.0,30.11,ENE,68,0.0,0.0,97,0.00,,,0.00,weatherlink.com 1.10,2013-07-15 10:17:00,
2013-07-15 05:32:00,72.2,71.0,30.11,ENE,68,0.0,0.0,97,0.00,,,0.00,weatherlink.com 1.10,2013-07-15 10:32:00,
2013-07-15 05:47:00,72.4,72.0,30.11,NNE,15,0.0,1.0,97,0.00,,,0.00,weatherlink.com 1.10,2013-07-15 10:47:00,
2013-07-15 06:02:00,72.6,72.0,30.12,NNE,15,0.0,0.0,97,0.00,,,0.00,weatherlink.com 1.10,2013-07-15 11:02:00,
2013-07-15 06:17:00,72.8,72.0,30.12,NNE,15,0.0,0.0,97,0.00,,,0.00,weatherlink.com 1.10,2013-07-15 11:17:00,
2013-07-15 06:32:00,73.4,72.0,30.12,NNE,18,0.0,1.0,96,0.00,,,0.00,weatherlink.com 1.10,2013-07-15 11:32:00,
2013-07-15 06:47:00,74.0,73.0,30.13,NNE,18,0.0,0.0,95,0.00,,,0.00,weatherlink.com 1.10,2013-07-15 11:47:00,
2013-07-15 07:02:00,74.6,73.0,30.14,North,7,0.0,1.0,94,0.00,,,0.00,weatherlink.com 1.10,2013-07-15 12:02:00,
2013-07-15 07:17:00,75.2,73.0,30.14,NE,56,0.0,2.0,93,0.00,,,0.00,weatherlink.com 1.10,2013-07-15 12:17:00,
2013-07-15 07:32:00,75.5,73.0,30.14,SE,131,0.0,2.0,93,0.00,,,0.00,weatherlink.com 1.10,2013-07-15 12:32:00,
2013-07-15 07:47:00,75.6,74.0,30.15,NW,324,0.0,1.0,93,0.00,,,0.00,weatherlink.com 1.10,2013-07-15 12:47:00,
2013-07-15 08:02:00,75.5,73.0,30.15,ENE,73,1.0,1.0,93,0.00,,,0.00,weatherlink.com 1.10,2013-07-15 13:02:00,
2013-07-15 08:18:00,76.2,74.0,30.16,ESE,122,0.0,3.0,93,0.00,,,0.00,weatherlink.com 1.10,2013-07-15 13:18:00,
2013-07-15 08:33:00,77.5,74.0,30.16,NE,49,4.0,4.0,90,0.00,,,0.00,weatherlink.com 1.10,2013-07-15 13:33:00,
2013-07-15 08:48:00,77.8,74.0,30.17,NNE,27,0.0,4.0,89,0.00,,,0.00,weatherlink.com 1.10,2013-07-15 13:48:00,
2013-07-15 09:03:00,78.3,75.0,30.17,SSE,164,0.0,8.0,88,0.00,,,0.00,weatherlink.com 1.10,2013-07-15 14:03:00,
2013-07-15 09:18:00,78.8,75.0,30.17,ESE,114,0.0,5.0,87,0.00,,,0.00,weatherlink.com 1.10,2013-07-15 14:18:00,
2013-07-15 09:33:00,79.1,75.0,30.18,NNE,15,0.0,2.0,87,0.00,,,0.00,weatherlink.com 1.10,2013-07-15 14:33:00,
2013-07-15 09:48:00,79.2,74.0,30.18,WNW,298,0.0,3.0,85,0.00,,,0.00,weatherlink.com 1.10,2013-07-15 14:48:00,
2013-07-15 10:04:00,81.1,75.0,30.17,East,90,0.0,5.0,82,0.00,,,0.00,weatherlink.com 1.10,2013-07-15 15:04:00,
2013-07-15 10:18:00,81.4,75.0,30.17,SSW,210,0.0,2.0,81,0.00,,,0.00,weatherlink.com 1.10,2013-07-15 15:18:00,
2013-07-15 10:33:00,84.2,76.0,30.17,NE,40,3.0,4.0,77,0.00,,,0.00,weatherlink.com 1.10,2013-07-15 15:33:00,
2013-07-15 11:03:00,85.5,75.0,30.17,ENE,59,2.0,6.0,70,0.00,,,0.00,weatherlink.com 1.10,2013-07-15 16:03:00,
2013-07-15 11:18:00,85.4,74.0,30.16,NE,56,3.0,7.0,69,0.00,,,0.00,weatherlink.com 1.10,2013-07-15 16:18:00,
2013-07-15 11:33:00,85.6,75.0,30.16,SE,140,0.0,5.0,71,0.00,,,0.00,weatherlink.com 1.10,2013-07-15 16:33:00,
2013-07-15 11:48:00,86.2,75.0,30.16,SSE,149,0.0,4.0,70,0.00,,,0.00,weatherlink.com 1.10,2013-07-15 16:48:00,
2013-07-15 12:03:00,85.8,75.0,30.16,NNE,21,3.0,4.0,69,0.00,,,0.00,weatherlink.com 1.10,2013-07-15 17:03:00,
2013-07-15 12:18:00,86.3,74.0,30.15,NE,56,3.0,5.0,67,0.00,,,0.00,weatherlink.com 1.10,2013-07-15 17:18:00,
2013-07-15 12:33:00,87.8,75.0,30.14,East,80,6.0,6.0,66,0.00,,,0.00,weatherlink.com 1.10,2013-07-15 17:33:00,
2013-07-15 13:03:00,88.9,73.0,30.14,ESE,110,2.0,8.0,60,0.00,,,0.00,weatherlink.com 1.10,2013-07-15 18:03:00,
2013-07-15 13:33:00,89.1,75.0,30.13,East,81,1.0,4.0,63,0.00,,,0.00,weatherlink.com 1.10,2013-07-15 18:33:00,
2013-07-15 13:48:00,90.1,74.0,30.13,SSE,156,0.0,5.0,59,0.00,,,0.00,weatherlink.com 1.10,2013-07-15 18:48:00,
2013-07-15 14:03:00,89.8,75.0,30.13,SSW,197,1.0,6.0,62,0.00,,,0.00,weatherlink.com 1.10,2013-07-15 19:03:00,
2013-07-15 14:18:00,89.1,74.0,30.12,ESE,114,0.0,5.0,61,0.00,,,0.00,weatherlink.com 1.10,2013-07-15 19:18:00,
2013-07-15 14:33:00,88.8,74.0,30.12,SSE,160,0.0,7.0,61,0.00,,,0.00,weatherlink.com 1.10,2013-07-15 19:33:00,
2013-07-15 14:48:00,88.4,75.0,30.11,ENE,58,3.0,3.0,64,0.00,,,0.00,weatherlink.com 1.10,2013-07-15 19:48:00,
2013-07-15 15:19:00,84.8,76.0,30.11,WSW,244,0.0,3.0,74,0.00,,,0.00,weatherlink.com 1.10,2013-07-15 20:19:00,
2013-07-15 15:49:00,86.0,76.0,30.11,ENE,68,0.0,2.0,71,0.00,,,0.00,weatherlink.com 1.10,2013-07-15 20:49:00,
2013-07-15 16:04:00,87.0,75.0,30.11,NE,39,1.0,3.0,67,0.00,,,0.00,weatherlink.com 1.10,2013-07-15 21:04:00,
2013-07-15 16:19:00,87.0,76.0,30.11,WNW,302,0.0,2.0,69,0.00,,,0.00,weatherlink.com 1.10,2013-07-15 21:19:00,
2013-07-15 16:49:00,86.9,76.0,30.10,ESE,110,0.0,3.0,70,0.00,,,0.00,weatherlink.com 1.10,2013-07-15 21:49:00,
2013-07-15 17:04:00,85.6,76.0,30.10,ENE,64,1.0,5.0,73,0.00,,,0.00,weatherlink.com 1.10,2013-07-15 22:04:00,
2013-07-15 17:34:00,82.7,75.0,30.10,ENE,73,1.0,5.0,78,0.00,,,0.00,weatherlink.com 1.10,2013-07-15 22:34:00,
2013-07-15 17:49:00,82.2,76.0,30.11,ENE,67,0.0,3.0,80,0.00,,,0.00,weatherlink.com 1.10,2013-07-15 22:49:00,
2013-07-15 18:04:00,82.2,75.0,30.11,ENE,77,0.0,2.0,78,0.00,,,0.00,weatherlink.com 1.10,2013-07-15 23:04:00,
2013-07-15 18:19:00,82.5,75.0,30.10,East,101,0.0,3.0,79,0.00,,,0.00,weatherlink.com 1.10,2013-07-15 23:19:00,
2013-07-15 18:34:00,82.2,76.0,30.11,East,98,0.0,1.0,81,0.00,,,0.00,weatherlink.com 1.10,2013-07-15 23:34:00,
2013-07-15 19:04:00,81.2,76.0,30.12,ENE,77,0.0,2.0,84,0.00,,,0.00,weatherlink.com 1.10,2013-07-16 00:04:00,
2013-07-15 19:19:00,80.5,76.0,30.13,ENE,77,0.0,0.0,86,0.00,,,0.00,weatherlink.com 1.10,2013-07-16 00:19:00,
2013-07-15 19:34:00,80.0,76.0,30.14,ENE,77,0.0,0.0,87,0.00,,,0.00,weatherlink.com 1.10,2013-07-16 00:34:00,
2013-07-15 19:49:00,79.6,76.0,30.14,ENE,77,0.0,0.0,88,0.00,,,0.00,weatherlink.com 1.10,2013-07-16 00:49:00,
2013-07-15 20:04:00,79.0,76.0,30.14,ENE,77,0.0,0.0,89,0.00,,,0.00,weatherlink.com 1.10,2013-07-16 01:04:00,
2013-07-15 20:19:00,78.5,75.0,30.15,ENE,77,0.0,0.0,90,0.00,,,0.00,weatherlink.com 1.10,2013-07-16 01:19:00,
2013-07-15 20:34:00,77.9,75.0,30.15,ENE,77,0.0,0.0,90,0.00,,,0.00,weatherlink.com 1.10,2013-07-16 01:34:00,
2013-07-15 20:49:00,77.6,75.0,30.16,ENE,77,0.0,0.0,91,0.00,,,0.00,weatherlink.com 1.10,2013-07-16 01:49:00,
2013-07-15 21:04:00,77.4,74.0,30.16,ENE,77,0.0,0.0,90,0.00,,,0.00,weatherlink.com 1.10,2013-07-16 02:04:00,
2013-07-15 21:19:00,77.3,75.0,30.17,ENE,77,0.0,0.0,91,0.00,,,0.00,weatherlink.com 1.10,2013-07-16 02:19:00,
2013-07-15 21:34:00,77.2,74.0,30.17,ENE,76,0.0,0.0,90,0.00,,,0.00,weatherlink.com 1.10,2013-07-16 02:34:00,
2013-07-15 21:49:00,77.1,74.0,30.18,ENE,76,0.0,0.0,89,0.00,,,0.00,weatherlink.com 1.10,2013-07-16 02:49:00,
2013-07-15 22:04:00,77.0,74.0,30.18,ENE,76,0.0,0.0,89,0.00,,,0.00,weatherlink.com 1.10,2013-07-16 03:04:00,
2013-07-15 22:19:00,76.8,73.0,30.18,ENE,76,0.0,0.0,89,0.00,,,0.00,weatherlink.com 1.10,2013-07-16 03:19:00,
2013-07-15 22:34:00,76.6,73.0,30.18,ENE,76,0.0,0.0,89,0.00,,,0.00,weatherlink.com 1.10,2013-07-16 03:34:00,
2013-07-15 23:04:00,75.7,73.0,30.18,ENE,76,0.0,0.0,91,0.00,,,0.00,weatherlink.com 1.10,2013-07-16 04:04:00,
2013-07-15 23:19:00,75.1,73.0,30.17,ENE,76,0.0,0.0,93,0.00,,,0.00,weatherlink.com 1.10,2013-07-16 04:19:00,
2013-07-15 23:34:00,74.8,73.0,30.17,ENE,76,0.0,0.0,94,0.00,,,0.00,weatherlink.com 1.10,2013-07-16 04:34:00,
2013-07-15 23:49:00,74.5,73.0,30.17,ENE,76,0.0,0.0,94,0.00,,,0.00,weatherlink.com 1.10,2013-07-16 04:49:00,